• In Uzbekistan
  • List of Countries
  • For 7 days
  • Water Temperature
  • Satellite Maps
  • Weather Map
  • Weather Widgets
  • user-avatar
    Login

    Hourly Weather Rawson

    Today, 17 January, Tuesday

    Time Temperature Precipitation Wind Pressure Humidity
    00:00 +21°C° 0 mm 10 mps 753 mmHg 20%
    01:00 +19°C° 0 mm 11 mps 753 mmHg 24%
    02:00 +17°C° 0 mm 11 mps 754 mmHg 27%
    03:00 +17°C° 0 mm 11 mps 754 mmHg 29%
    04:00 +16°C° 0 mm 11 mps 754 mmHg 32%
    05:00 +14°C° 0 mm 10 mps 754 mmHg 34%
    06:00 +16°C° 0 mm 11 mps 755 mmHg 34%
    07:00 +17°C° 0 mm 11 mps 755 mmHg 33%
    08:00 +18°C° 0 mm 12 mps 755 mmHg 32%
    09:00 +21°C° 0 mm 11 mps 755 mmHg 29%
    10:00 +22°C° 0 mm 11 mps 754 mmHg 27%
    11:00 +24°C° 0 mm 11 mps 754 mmHg 24%
    12:00 +26°C° 0 mm 10 mps 754 mmHg 22%
    13:00 +28°C° 0 mm 10 mps 753 mmHg 20%
    14:00 +29°C° 0 mm 10 mps 753 mmHg 18%
    15:00 +29°C° 0 mm 10 mps 752 mmHg 17%
    16:00 +29°C° 0 mm 10 mps 752 mmHg 17%
    17:00 +29°C° 0 mm 9 mps 752 mmHg 17%
    18:00 +27°C° 0 mm 9 mps 752 mmHg 19%
    19:00 +26°C° 0 mm 8 mps 753 mmHg 21%
    20:00 +24°C° 0 mm 7 mps 753 mmHg 23%
    21:00 +23°C° 0 mm 7 mps 754 mmHg 25%
    22:00 +22°C° 0 mm 8 mps 755 mmHg 26%
    23:00 +21°C° 0 mm 9 mps 755 mmHg 28%

    Tomorrow, 18 January, Wednesday

    Time Temperature Precipitation Wind Pressure Humidity
    00:00 +19°C° 0 mm 9 mps 756 mmHg 30%
    01:00 +18°C° 0 mm 9 mps 756 mmHg 32%
    02:00 +18°C° 0 mm 9 mps 756 mmHg 33%
    03:00 +17°C° 0 mm 8 mps 756 mmHg 35%
    04:00 +16°C° 0 mm 7 mps 756 mmHg 37%
    05:00 +15°C° 0 mm 7 mps 756 mmHg 39%
    06:00 +17°C° 0 mm 7 mps 757 mmHg 36%
    07:00 +18°C° 0 mm 8 mps 757 mmHg 34%
    08:00 +20°C° 0 mm 8 mps 757 mmHg 32%
    09:00 +22°C° 0 mm 8 mps 757 mmHg 30%
    10:00 +23°C° 0 mm 7 mps 757 mmHg 28%
    11:00 +26°C° 0 mm 7 mps 757 mmHg 27%
    12:00 +27°C° 0 mm 6 mps 756 mmHg 24%
    13:00 +28°C° 0 mm 6 mps 756 mmHg 22%
    14:00 +29°C° 0 mm 5 mps 755 mmHg 20%
    15:00 +30°C° 0 mm 5 mps 754 mmHg 19%
    16:00 +30°C° 0 mm 5 mps 754 mmHg 19%
    17:00 +30°C° 0 mm 5 mps 753 mmHg 18%
    18:00 +29°C° 0 mm 5 mps 753 mmHg 22%
    19:00 +27°C° 0 mm 6 mps 753 mmHg 26%
    20:00 +26°C° 0 mm 6 mps 753 mmHg 29%
    21:00 +25°C° 0 mm 5 mps 754 mmHg 33%
    22:00 +23°C° 0 mm 4 mps 754 mmHg 36%
    23:00 +22°C° 0 mm 4 mps 754 mmHg 39%

    Day after tomorrow, 19 January, Thursday

    Time Temperature Precipitation Wind Pressure Humidity
    00:00 +21°C° 0 mm 3 mps 754 mmHg 41%
    01:00 +21°C° 0 mm 3 mps 754 mmHg 43%
    02:00 +20°C° 0 mm 2 mps 755 mmHg 44%
    03:00 +20°C° 0 mm 2 mps 755 mmHg 47%
    04:00 +19°C° 0 mm 2 mps 755 mmHg 50%
    05:00 +20°C° 0 mm 1 mps 755 mmHg 53%
    06:00 +21°C° 0 mm 1 mps 755 mmHg 48%
    07:00 +23°C° 0 mm 2 mps 755 mmHg 43%
    08:00 +24°C° 0 mm 2 mps 755 mmHg 37%
    09:00 +26°C° 0 mm 2 mps 755 mmHg 33%
    10:00 +28°C° 0 mm 3 mps 755 mmHg 28%
    11:00 +29°C° 0 mm 3 mps 755 mmHg 23%
    12:00 +32°C° 0 mm 4 mps 755 mmHg 21%
    13:00 +33°C° 0 mm 5 mps 754 mmHg 18%
    14:00 +34°C° 0 mm 5 mps 754 mmHg 15%
    15:00 +35°C° 0 mm 6 mps 754 mmHg 15%
    16:00 +35°C° 0 mm 6 mps 753 mmHg 15%
    17:00 +35°C° 0 mm 6 mps 753 mmHg 14%
    18:00 +34°C° 0 mm 6 mps 753 mmHg 17%
    19:00 +32°C° 0 mm 6 mps 754 mmHg 20%
    20:00 +30°C° 0 mm 6 mps 754 mmHg 23%
    21:00 +28°C° 0 mm 6 mps 755 mmHg 26%
    22:00 +27°C° 0 mm 6 mps 755 mmHg 30%
    23:00 +26°C° 0 mm 6 mps 756 mmHg 34%

    20 January, Friday

    Time Temperature Precipitation Wind Pressure Humidity
    00:00 +25°C° 0 mm 5 mps 756 mmHg 34%
    01:00 +25°C° 0 mm 4 mps 756 mmHg 35%
    02:00 +24°C° 0 mm 3 mps 756 mmHg 36%
    03:00 +24°C° 0 mm 3 mps 756 mmHg 37%
    04:00 +22°C° 0 mm 3 mps 757 mmHg 39%
    05:00 +22°C° 0 mm 3 mps 757 mmHg 40%
    06:00 +24°C° 0 mm 2 mps 757 mmHg 38%
    07:00 +25°C° 0 mm 2 mps 758 mmHg 35%
    08:00 +27°C° 0 mm 2 mps 758 mmHg 32%
    09:00 +28°C° 0 mm 2 mps 758 mmHg 30%
    10:00 +29°C° 0 mm 3 mps 758 mmHg 27%
    11:00 +30°C° 0 mm 3 mps 757 mmHg 24%
    12:00 +32°C° 0 mm 4 mps 757 mmHg 23%
    13:00 +33°C° 0 mm 5 mps 756 mmHg 21%
    14:00 +34°C° 0 mm 6 mps 756 mmHg 19%
    15:00 +34°C° 0 mm 7 mps 755 mmHg 21%
    16:00 +34°C° 0 mm 9 mps 754 mmHg 23%
    17:00 +33°C° 0 mm 10 mps 754 mmHg 26%
    18:00 +31°C° 0 mm 9 mps 754 mmHg 32%
    19:00 +28°C° 0 mm 9 mps 754 mmHg 39%
    20:00 +27°C° 0 mm 8 mps 754 mmHg 45%
    21:00 +26°C° 0 mm 7 mps 754 mmHg 49%
    22:00 +25°C° 0 mm 5 mps 755 mmHg 53%
    23:00 +23°C° 0 mm 4 mps 755 mmHg 56%

    21 January, Saturday

    Time Temperature Precipitation Wind Pressure Humidity
    00:00 +23°C° 0 mm 4 mps 755 mmHg 55%
    01:00 +22°C° 0 mm 5 mps 755 mmHg 54%
    02:00 +22°C° 0 mm 5 mps 756 mmHg 54%
    03:00 +22°C° 0 mm 6 mps 756 mmHg 51%
    04:00 +21°C° 0 mm 6 mps 756 mmHg 48%
    05:00 +21°C° 0 mm 7 mps 756 mmHg 45%
    06:00 +22°C° 0 mm 7 mps 757 mmHg 41%
    07:00 +24°C° 0 mm 7 mps 757 mmHg 36%
    08:00 +26°C° 0 mm 7 mps 757 mmHg 31%
    09:00 +27°C° 0 mm 7 mps 757 mmHg 28%
    10:00 +29°C° 0 mm 6 mps 757 mmHg 25%
    11:00 +30°C° 0 mm 6 mps 757 mmHg 22%
    12:00 +32°C° 0 mm 6 mps 757 mmHg 20%
    13:00 +33°C° 0 mm 6 mps 757 mmHg 18%
    14:00 +34°C° 0 mm 6 mps 756 mmHg 16%
    15:00 +34°C° 0 mm 7 mps 756 mmHg 16%
    16:00 +33°C° 0 mm 7 mps 756 mmHg 15%
    17:00 +33°C° 0 mm 7 mps 756 mmHg 15%
    18:00 +30°C° 0 mm 6 mps 757 mmHg 18%
    19:00 +29°C° 0 mm 6 mps 758 mmHg 21%
    20:00 +27°C° 0 mm 5 mps 758 mmHg 24%
    21:00 +26°C° 0 mm 5 mps 759 mmHg 27%
    22:00 +25°C° 0 mm 5 mps 759 mmHg 31%
    23:00 +23°C° 0 mm 5 mps 759 mmHg 34%

    22 January, Sunday

    Time Temperature Precipitation Wind Pressure Humidity
    00:00 +22°C° 0 mm 5 mps 760 mmHg 32%
    01:00 +22°C° 0 mm 5 mps 760 mmHg 30%
    02:00 +21°C° 0 mm 6 mps 760 mmHg 28%
    03:00 +20°C° 0 mm 5 mps 760 mmHg 30%
    04:00 +20°C° 0 mm 5 mps 760 mmHg 32%
    05:00 +19°C° 0 mm 5 mps 761 mmHg 34%
    06:00 +20°C° 0 mm 5 mps 761 mmHg 32%
    07:00 +21°C° 0 mm 4 mps 761 mmHg 30%
    08:00 +22°C° 0 mm 4 mps 762 mmHg 27%
    09:00 +23°C° 0 mm 4 mps 762 mmHg 25%
    10:00 +26°C° 0 mm 4 mps 761 mmHg 22%
    11:00 +27°C° 0 mm 3 mps 761 mmHg 19%
    12:00 +28°C° 0 mm 4 mps 761 mmHg 17%
    13:00 +29°C° 0 mm 4 mps 760 mmHg 15%
    14:00 +30°C° 0 mm 5 mps 760 mmHg 13%
    15:00 +32°C° 0 mm 5 mps 759 mmHg 13%
    16:00 +32°C° 0 mm 5 mps 759 mmHg 13%
    17:00 +32°C° 0 mm 5 mps 758 mmHg 12%
    18:00 +30°C° 0 mm 6 mps 758 mmHg 16%
    19:00 +28°C° 0 mm 6 mps 758 mmHg 20%
    20:00 +27°C° 0 mm 7 mps 758 mmHg 24%
    21:00 +24°C° 0 mm 7 mps 758 mmHg 29%
    22:00 +23°C° 0 mm 8 mps 758 mmHg 34%
    23:00 +22°C° 0 mm 8 mps 758 mmHg 38%
    Show more